When you browse on this site, cookies collect data to enhance your experience and personalize the content and advertising you see.
Visit our Privacy Policy to learn more. By continuing to use the site, you agree to this use of cookies and data.
  • en Suisse
  • Liste des pays
  • À 7 jours
  • Température de l'eau
  • Carte satellitaire
  • Carte météo
  • Widgets météo
  • user-avatar
    Se connecter

    Météo par heure à Eldoret

    Ce jour, 21 Mars, Jeudi

    Heure Température Précipitation Vent Pression Humidité
    00:00 +18°C° 0 mm 2 m/s 596 mmHg 47%
    01:00 +17°C° 0 mm 3 m/s 596 mmHg 54%
    02:00 +17°C° 0 mm 3 m/s 596 mmHg 55%
    03:00 +16°C° 0 mm 3 m/s 596 mmHg 58%
    04:00 +16°C° 0 mm 3 m/s 596 mmHg 60%
    05:00 +16°C° 0 mm 3 m/s 596 mmHg 63%
    06:00 +18°C° 0 mm 3 m/s 597 mmHg 55%
    07:00 +21°C° 0 mm 3 m/s 598 mmHg 47%
    08:00 +25°C° 0 mm 4 m/s 600 mmHg 35%
    09:00 +27°C° 0 mm 3 m/s 600 mmHg 29%
    10:00 +29°C° 0 mm 3 m/s 601 mmHg 22%
    11:00 +33°C° 0 mm 3 m/s 602 mmHg 16%
    12:00 +33°C° 0 mm 3 m/s 601 mmHg 15%
    13:00 +33°C° 0 mm 3 m/s 601 mmHg 14%
    14:00 +33°C° 0 mm 3 m/s 600 mmHg 13%
    15:00 +31°C° 0 mm 3 m/s 599 mmHg 18%
    16:00 +29°C° 0 mm 3 m/s 598 mmHg 23%
    17:00 +27°C° 0 mm 2 m/s 598 mmHg 28%
    18:00 +25°C° 0 mm 2 m/s 597 mmHg 36%
    19:00 +23°C° 0 mm 1 m/s 597 mmHg 44%
    20:00 +21°C° 0 mm 1 m/s 597 mmHg 52%
    21:00 +20°C° 0 mm 2 m/s 597 mmHg 50%
    22:00 +20°C° 0 mm 2 m/s 598 mmHg 48%
    23:00 +19°C° 0 mm 3 m/s 598 mmHg 46%

    Demain, 22 Mars, Vendredi

    Heure Température Précipitation Vent Pression Humidité
    00:00 +19°C° 0 mm 3 m/s 597 mmHg 52%
    01:00 +18°C° 0 mm 3 m/s 597 mmHg 58%
    02:00 +17°C° 0 mm 4 m/s 596 mmHg 64%
    03:00 +17°C° 0 mm 3 m/s 596 mmHg 64%
    04:00 +17°C° 0 mm 3 m/s 596 mmHg 64%
    05:00 +17°C° 0 mm 3 m/s 596 mmHg 63%
    06:00 +19°C° 0 mm 3 m/s 597 mmHg 52%
    07:00 +21°C° 0 mm 4 m/s 598 mmHg 41%
    08:00 +25°C° 0 mm 4 m/s 600 mmHg 29%
    09:00 +27°C° 0 mm 4 m/s 600 mmHg 24%
    10:00 +29°C° 0 mm 3 m/s 601 mmHg 19%
    11:00 +31°C° 0 mm 3 m/s 601 mmHg 13%
    12:00 +33°C° 0 mm 3 m/s 601 mmHg 13%
    13:00 +33°C° 0 mm 4 m/s 600 mmHg 12%
    14:00 +34°C° 0 mm 4 m/s 600 mmHg 12%
    15:00 +32°C° 0 mm 4 m/s 599 mmHg 16%
    16:00 +30°C° 0 mm 4 m/s 598 mmHg 19%
    17:00 +28°C° 0 mm 3 m/s 598 mmHg 23%
    18:00 +26°C° 0.1 mm 3 m/s 598 mmHg 33%
    19:00 +24°C° 0.1 mm 2 m/s 598 mmHg 44%
    20:00 +21°C° 0.1 mm 1 m/s 598 mmHg 54%
    21:00 +20°C° 0 mm 2 m/s 598 mmHg 55%
    22:00 +19°C° 0 mm 2 m/s 598 mmHg 57%
    23:00 +18°C° 0 mm 3 m/s 598 mmHg 58%

    Après-demain, 23 Mars, Samedi

    Heure Température Précipitation Vent Pression Humidité
    00:00 +18°C° 0 mm 3 m/s 597 mmHg 62%
    01:00 +17°C° 0 mm 3 m/s 597 mmHg 66%
    02:00 +17°C° 0 mm 3 m/s 596 mmHg 70%
    03:00 +17°C° 0 mm 3 m/s 596 mmHg 70%
    04:00 +17°C° 0 mm 3 m/s 596 mmHg 69%
    05:00 +17°C° 0 mm 4 m/s 596 mmHg 69%
    06:00 +19°C° 0 mm 4 m/s 597 mmHg 57%
    07:00 +21°C° 0 mm 4 m/s 598 mmHg 46%
    08:00 +25°C° 0 mm 4 m/s 600 mmHg 34%
    09:00 +27°C° 0 mm 4 m/s 600 mmHg 28%
    10:00 +29°C° 0 mm 3 m/s 601 mmHg 21%
    11:00 +33°C° 0 mm 3 m/s 601 mmHg 15%
    12:00 +33°C° 0 mm 3 m/s 601 mmHg 14%
    13:00 +34°C° 0 mm 3 m/s 600 mmHg 13%
    14:00 +35°C° 0 mm 3 m/s 599 mmHg 13%
    15:00 +33°C° 0 mm 3 m/s 598 mmHg 18%
    16:00 +30°C° 0 mm 3 m/s 598 mmHg 23%
    17:00 +28°C° 0 mm 3 m/s 597 mmHg 28%
    18:00 +25°C° 0.1 mm 2 m/s 597 mmHg 37%
    19:00 +23°C° 0.1 mm 2 m/s 597 mmHg 47%
    20:00 +21°C° 0.1 mm 1 m/s 597 mmHg 56%
    21:00 +19°C° 0 mm 2 m/s 597 mmHg 57%
    22:00 +19°C° 0 mm 2 m/s 597 mmHg 58%
    23:00 +18°C° 0 mm 2 m/s 597 mmHg 59%

    24 Mars, Dimanche

    Heure Température Précipitation Vent Pression Humidité
    00:00 +18°C° 0 mm 3 m/s 596 mmHg 64%
    01:00 +18°C° 0 mm 3 m/s 596 mmHg 69%
    02:00 +17°C° 0 mm 3 m/s 595 mmHg 75%
    03:00 +17°C° 0 mm 3 m/s 595 mmHg 75%
    04:00 +17°C° 0 mm 4 m/s 595 mmHg 74%
    05:00 +17°C° 0 mm 4 m/s 595 mmHg 74%
    06:00 +19°C° 0 mm 4 m/s 597 mmHg 63%
    07:00 +21°C° 0 mm 4 m/s 598 mmHg 52%
    08:00 +23°C° 0 mm 4 m/s 599 mmHg 40%
    09:00 +27°C° 0 mm 4 m/s 599 mmHg 32%
    10:00 +29°C° 0 mm 3 m/s 600 mmHg 24%
    11:00 +33°C° 0 mm 3 m/s 600 mmHg 16%
    12:00 +33°C° 0 mm 3 m/s 600 mmHg 14%
    13:00 +34°C° 0 mm 3 m/s 599 mmHg 12%
    14:00 +34°C° 0 mm 3 m/s 599 mmHg 11%
    15:00 +33°C° 0 mm 3 m/s 598 mmHg 16%
    16:00 +30°C° 0 mm 3 m/s 598 mmHg 20%
    17:00 +28°C° 0 mm 2 m/s 597 mmHg 25%
    18:00 +25°C° 0 mm 2 m/s 596 mmHg 35%
    19:00 +21°C° 0 mm 2 m/s 596 mmHg 44%
    20:00 +20°C° 0 mm 1 m/s 596 mmHg 54%
    21:00 +18°C° 0 mm 2 m/s 596 mmHg 52%
    22:00 +18°C° 0 mm 2 m/s 596 mmHg 51%
    23:00 +17°C° 0 mm 2 m/s 596 mmHg 49%

    25 Mars, Lundi

    Heure Température Précipitation Vent Pression Humidité
    00:00 +17°C° 0 mm 2 m/s 595 mmHg 58%
    01:00 +16°C° 0 mm 2 m/s 595 mmHg 67%
    02:00 +16°C° 0 mm 3 m/s 594 mmHg 76%
    03:00 +16°C° 0 mm 3 m/s 594 mmHg 77%
    04:00 +16°C° 0 mm 3 m/s 595 mmHg 79%
    05:00 +14°C° 0 mm 3 m/s 595 mmHg 80%
    06:00 +18°C° 0 mm 3 m/s 597 mmHg 65%
    07:00 +21°C° 0 mm 3 m/s 598 mmHg 49%
    08:00 +25°C° 0 mm 3 m/s 600 mmHg 34%
    09:00 +27°C° 0 mm 3 m/s 600 mmHg 27%
    10:00 +29°C° 0 mm 3 m/s 600 mmHg 21%
    11:00 +31°C° 0 mm 3 m/s 601 mmHg 15%
    12:00 +33°C° 0 mm 3 m/s 600 mmHg 14%
    13:00 +33°C° 0 mm 3 m/s 599 mmHg 14%
    14:00 +33°C° 0 mm 4 m/s 599 mmHg 14%
    15:00 +31°C° 0 mm 3 m/s 598 mmHg 19%
    16:00 +29°C° 0 mm 3 m/s 598 mmHg 25%
    17:00 +27°C° 0 mm 2 m/s 597 mmHg 31%
    18:00 +24°C° 0.4 mm 1 m/s 597 mmHg 43%
    19:00 +21°C° 0.4 mm 1 m/s 596 mmHg 55%
    20:00 +17°C° 0.4 mm 0 m/s 596 mmHg 67%
    21:00 +18°C° 0 mm 1 m/s 596 mmHg 66%
    22:00 +17°C° 0 mm 2 m/s 596 mmHg 65%
    23:00 +17°C° 0 mm 2 m/s 596 mmHg 65%

    26 Mars, Mardi

    Heure Température Précipitation Vent Pression Humidité
    00:00 +16°C° 0 mm 2 m/s 596 mmHg 69%
    01:00 +16°C° 0 mm 2 m/s 595 mmHg 72%
    02:00 +16°C° 0 mm 3 m/s 595 mmHg 76%
    03:00 +15°C° 0 mm 2 m/s 595 mmHg 77%
    04:00 +15°C° 0 mm 2 m/s 595 mmHg 79%
    05:00 +15°C° 0 mm 2 m/s 596 mmHg 80%
    06:00 +18°C° 0 mm 2 m/s 597 mmHg 67%
    07:00 +20°C° 0 mm 2 m/s 599 mmHg 55%
    08:00 +24°C° 0 mm 2 m/s 600 mmHg 42%
    09:00 +26°C° 0 mm 2 m/s 601 mmHg 34%
    10:00 +29°C° 0 mm 2 m/s 601 mmHg 26%
    11:00 +31°C° 0 mm 2 m/s 602 mmHg 17%
    12:00 +31°C° 0 mm 2 m/s 601 mmHg 17%
    13:00 +33°C° 0 mm 3 m/s 600 mmHg 17%
    14:00 +33°C° 0 mm 3 m/s 600 mmHg 17%
    15:00 +30°C° 0.4 mm 3 m/s 599 mmHg 26%
    16:00 +27°C° 0.4 mm 3 m/s 598 mmHg 35%
    17:00 +25°C° 0.4 mm 3 m/s 598 mmHg 44%
    18:00 +23°C° 1 mm 2 m/s 597 mmHg 57%
    19:00 +19°C° 1 mm 2 m/s 597 mmHg 70%
    20:00 +18°C° 1 mm 1 m/s 597 mmHg 83%
    21:00 +18°C° 0.1 mm 1 m/s 597 mmHg 79%
    22:00 +17°C° 0.1 mm 2 m/s 597 mmHg 76%
    23:00 +17°C° 0.1 mm 2 m/s 597 mmHg 72%
    Voir plus